| time (UTC) | temp F | wind direction | speed knots | gust knots | rain 1hr in | rain 24hr in | rain mn in | humidity % | barometer mb |
| 20260508114518 | 50 | 313 | 9.6 | 23.5 | 0.01 | 0.74 | 0.41 | 1 | 998.0 |
| 20260508113013 | 50 | 266 | 9.6 | 22.6 | 0.01 | 0.74 | 0.41 | 1 | 998.0 |
| 20260508111513 | 50 | 278 | 9.6 | 20.9 | 0.01 | 0.73 | 0.40 | 1 | 998.0 |
| 20260508110004 | 51 | 284 | 10.4 | 20.9 | 0.01 | 0.73 | 0.40 | 1 | 997.7 |
| 20260508104623 | 51 | 285 | 7.0 | 22.6 | 0.01 | 0.91 | 0.40 | 1 | 997.4 |
| 20260508103056 | 51 | 355 | 7.8 | 24.3 | 0.02 | 0.91 | 0.40 | 1 | 997.1 |
| 20260508101552 | 52 | 297 | 9.6 | 22.6 | 0.03 | 0.91 | 0.39 | 1 | 996.8 |
| 20260508100048 | 52 | 271 | 7.0 | 23.5 | 0.03 | 0.91 | 0.39 | 1 | 996.5 |
| 20260508094547 | 52 | 292 | 11.3 | 22.6 | 0.03 | 1.01 | 0.39 | 1 | 996.4 |
| 20260508093038 | 53 | 242 | 10.4 | 22.6 | 0.02 | 0.99 | 0.38 | 1 | 996.1 |
| 20260508091534 | 53 | 309 | 13.0 | 26.1 | 0.02 | 0.98 | 0.36 | 1 | 996.0 |
| 20260508090032 | 53 | 299 | 11.3 | 22.6 | 0.02 | 0.98 | 0.36 | 1 | 995.8 |
| 20260508084525 | 54 | 331 | 12.2 | 22.6 | 0.04 | 1.06 | 0.36 | 1 | 995.6 |
| 20260508083021 | 54 | 292 | 12.2 | 23.5 | 0.03 | 1.06 | 0.35 | 1 | 995.3 |
| 20260508081516 | 54 | 342 | 11.3 | 20.9 | 0.14 | 1.05 | 0.35 | 1 | 995.3 |
| 20260508080015 | 55 | 293 | 10.4 | 25.2 | 0.23 | 1.04 | 0.34 | 1 | 995.1 |
| 20260508074507 | 55 | 282 | 11.3 | 25.2 | 0.24 | 1.22 | 0.32 | 1 | 994.9 |
| 20260508073003 | 54 | 317 | 8.7 | 15.6 | 0.28 | 1.22 | 0.32 | 1 | 994.7 |
| 20260508071603 | 54 | 59 | 3.5 | 10.4 | 0.16 | 1.10 | 0.20 | 1 | 994.4 |
| 20260508070139 | 54 | 282 | 1.7 | 7.8 | 0.06 | 1.01 | 0.11 | 1 | 995.1 |
| 20260508064605 | 54 | 47 | 0.9 | 7.8 | 0.03 | 1.37 | 0.08 | 1 | 995.9 |
| 20260508063048 | 54 | 346 | 2.6 | 8.7 | 0.00 | 1.34 | 0.05 | 1 | 996.0 |
| 20260508061547 | 54 | 313 | 1.7 | 7.8 | 0.02 | 1.34 | 0.05 | 1 | 996.4 |
| 20260508060036 | 54 | 323 | 0.9 | 7.8 | 0.03 | 1.34 | 0.05 | 1 | 996.8 |
| 20260508054532 | 54 | 85 | 1.7 | 8.7 | 0.04 | 1.41 | 0.05 | 1 | 996.5 |
| 20260508053027 | 55 | 319 | 0.0 | 5.2 | 0.05 | 1.41 | 0.05 | 1 | 996.4 |
| 20260508051523 | 55 | 290 | 1.7 | 8.7 | 0.02 | 1.39 | 0.02 | 1 | 996.9 |
| 20260508050021 | 55 | 302 | 3.5 | 6.1 | 0.02 | 1.38 | 0.02 | 1 | 996.6 |
| 20260508044514 | 56 | 345 | 1.7 | 6.1 | 0.01 | 1.38 | 0.01 | 1 | 997.1 |
| 20260508043009 | 56 | 302 | 0.9 | 9.6 | 0.00 | 1.37 | 0.00 | 1 | 996.9 |
| 20260508041507 | 56 | 316 | 2.6 | 12.2 | 0.00 | 1.37 | 0.00 | 1 | 997.0 |
| 20260508040000 | 56 | 281 | 3.5 | 11.3 | 0.00 | 1.37 | 0.00 | 1 | 997.3 |
| 20260508034557 | 57 | 301 | 2.6 | 9.6 | 0.00 | 1.37 | 0.00 | 1 | 997.6 |
| 20260508033051 | 57 | 307 | 1.7 | 8.7 | 0.00 | 1.37 | 0.00 | 1 | 997.0 |
| 20260508031553 | 58 | 296 | 3.5 | 10.4 | 0.00 | 1.37 | 0.00 | 10 | 996.4 |
| 20260508030052 | 58 | 317 | 7.8 | 13.9 | 0.00 | 1.37 | 0.00 | 20 | 996.4 |
| 20260508024539 | 59 | 241 | 5.2 | 12.2 | 0.00 | 1.37 | 1.37 | 29 | 995.8 |
| 20260508023037 | 59 | 327 | 7.0 | 16.5 | 0.00 | 1.37 | 1.37 | 28 | 996.9 |
| 20260508021533 | 59 | 279 | 7.0 | 17.4 | 0.00 | 1.37 | 1.37 | 20 | 996.9 |
| 20260508020025 | 59 | 288 | 7.8 | 19.1 | 0.00 | 1.37 | 1.37 | 20 | 997.2 |
| 20260508014521 | 60 | 256 | 5.2 | 11.3 | 0.00 | 1.37 | 1.37 | 20 | 997.2 |
| 20260508013016 | 59 | 248 | 6.1 | 13.0 | 0.00 | 1.37 | 1.37 | 17 | 997.5 |
| 20260508011512 | 60 | 292 | 7.0 | 16.5 | 0.00 | 1.37 | 1.37 | 11 | 997.6 |
| 20260508010012 | 60 | 296 | 7.0 | 17.4 | 0.00 | 1.37 | 1.37 | 2 | 998.1 |
| 20260508004504 | 60 | 294 | 7.8 | 19.1 | 0.00 | 1.37 | 1.37 | 1 | 998.9 |
| 20260508003100 | 60 | 286 | 9.6 | 20.0 | 0.00 | 1.37 | 1.37 | 1 | 998.9 |
| 20260508001556 | 60 | 278 | 9.6 | 21.7 | 0.00 | 1.37 | 1.37 | 1 | 998.2 |
| 20260508000051 | 61 | 297 | 7.0 | 18.2 | 0.00 | 1.37 | 1.37 | 1 | 998.1 |
| 20260507234548 | 61 | 286 | 6.1 | 13.0 | 0.00 | 1.37 | 1.37 | 1 | 998.8 |
| 20260507233042 | 61 | 280 | 8.7 | 24.3 | 0.00 | 1.37 | 1.37 | 1 | 999.3 |
| 20260507231538 | 61 | 291 | 8.7 | 17.4 | 0.00 | 1.37 | 1.37 | 1 | 999.3 |
| 20260507230033 | 62 | 303 | 8.7 | 17.4 | 0.00 | 1.37 | 1.37 | 1 | 999.6 |
| 20260507224529 | 61 | 258 | 2.6 | 11.3 | 0.00 | 1.37 | 1.37 | 1 | 999.2 |
| 20260507223024 | 61 | 289 | 4.3 | 13.0 | 0.00 | 1.37 | 1.37 | 1 | 998.5 |
| 20260507221520 | 61 | 300 | 6.1 | 11.3 | 0.00 | 1.37 | 1.37 | 1 | 998.6 |
| 20260507220015 | 61 | 280 | 5.2 | 11.3 | 0.00 | 1.37 | 1.37 | 1 | 998.4 |
| 20260507214511 | 61 | 257 | 4.3 | 12.2 | 0.00 | 1.37 | 1.37 | 1 | 997.5 |
| 20260507213009 | 60 | 267 | 6.1 | 12.2 | 0.00 | 1.37 | 1.37 | 1 | 997.2 |
| 20260507211502 | 60 | 268 | 4.3 | 11.3 | 0.00 | 1.37 | 1.37 | 1 | 997.8 |
| 20260507210058 | 60 | 286 | 5.2 | 10.4 | 0.00 | 1.37 | 1.37 | 1 | 998.0 |
| 20260507204600 | 60 | 282 | 7.8 | 13.0 | 0.00 | 1.37 | 1.37 | 1 | 998.1 |
| 20260507203049 | 60 | 265 | 5.2 | 13.9 | 0.00 | 1.37 | 1.37 | 1 | 998.5 |
| 20260507201550 | 61 | 263 | 6.1 | 15.6 | 0.00 | 1.37 | 1.37 | 1 | 998.9 |
| 20260507200048 | 62 | 305 | 4.3 | 11.3 | 0.00 | 1.37 | 1.37 | 1 | 999.2 |
| 20260507194545 | 62 | 298 | 4.3 | 8.7 | 0.00 | 1.37 | 1.37 | 1 | 998.9 |
| 20260507193033 | 62 | 296 | 3.5 | 9.6 | 0.00 | 1.37 | 1.37 | 1 | 998.9 |
| 20260507191530 | 61 | 349 | 0.0 | 4.3 | 0.00 | 1.37 | 1.37 | 1 | 997.6 |
| 20260507190022 | 62 | 14 | 1.7 | 7.8 | 0.00 | 1.37 | 1.37 | 1 | 997.7 |
| 20260507184518 | 62 | 358 | 0.0 | 4.3 | 0.00 | 1.37 | 1.37 | 1 | 998.6 |
| 20260507183020 | 62 | 287 | 0.0 | 3.5 | 0.00 | 1.37 | 1.37 | 1 | 997.9 |
| 20260507181508 | 62 | 286 | 0.0 | 5.2 | 0.00 | 1.37 | 1.37 | 1 | 997.8 |
| 20260507180004 | 62 | 28 | 3.5 | 9.6 | 0.01 | 1.37 | 1.37 | 1 | 998.5 |
| 20260507174600 | 62 | 313 | 1.7 | 7.0 | 0.02 | 1.37 | 1.37 | 1 | 998.4 |
| 20260507173057 | 62 | 293 | 0.0 | 6.1 | 0.02 | 1.37 | 1.37 | 1 | 998.6 |
| 20260507171552 | 62 | 331 | 0.9 | 5.2 | 0.02 | 1.37 | 1.37 | 1 | 998.9 |
| 20260507170050 | 62 | 290 | 1.7 | 6.1 | 0.02 | 1.36 | 1.36 | 1 | 998.8 |
| 20260507164556 | 62 | 57 | 0.0 | 4.3 | 0.03 | 1.36 | 1.35 | 1 | 998.1 |
| 20260507163039 | 62 | 322 | 1.7 | 7.8 | 0.06 | 1.36 | 1.35 | 1 | 999.6 |
| 20260507161539 | 62 | 318 | 1.7 | 5.2 | 0.06 | 1.35 | 1.35 | 1 | 999.8 |
| 20260507160034 | 62 | 12 | 0.0 | 5.2 | 0.08 | 1.35 | 1.34 | 1 | 999.8 |
| 20260507154525 | 62 | 28 | 0.9 | 5.2 | 0.09 | 1.33 | 1.32 | 1 | 1000.3 |
| 20260507153021 | 62 | 293 | 2.6 | 7.0 | 0.10 | 1.31 | 1.30 | 1 | 1000.3 |
| 20260507151517 | 62 | 289 | 2.6 | 6.1 | 0.11 | 1.30 | 1.29 | 1 | 1000.2 |
| 20260507150014 | 62 | 321 | 1.7 | 7.0 | 0.10 | 1.27 | 1.26 | 1 | 1000.7 |
| 20260507144510 | 62 | 327 | 3.5 | 9.6 | 0.09 | 1.24 | 1.23 | 1 | 1001.1 |
| 20260507143003 | 62 | 296 | 4.3 | 8.7 | 0.07 | 1.20 | 1.20 | 1 | 1001.0 |
| 20260507141623 | 62 | 280 | 3.5 | 11.3 | 0.06 | 1.19 | 1.18 | 1 | 1001.2 |
| 20260507140054 | 62 | 284 | 7.8 | 16.5 | 0.03 | 1.17 | 1.15 | 1 | 1001.4 |
| 20260507134550 | 62 | 288 | 3.5 | 11.3 | 0.01 | 1.13 | 1.12 | 1 | 1000.0 |
| 20260507133046 | 62 | 336 | 6.1 | 20.0 | 0.00 | 1.12 | 1.12 | 1 | 1000.1 |
| 20260507131551 | 62 | 253 | 0.9 | 4.3 | 0.00 | 1.12 | 1.12 | 1 | 1000.1 |
| 20260507130041 | 62 | 55 | 1.7 | 5.2 | 0.02 | 1.12 | 1.12 | 1 | 998.9 |
| 20260507124536 | 61 | 60 | 3.5 | 8.7 | 0.04 | 1.12 | 1.12 | 1 | 998.3 |
| 20260507123029 | 61 | 78 | 4.3 | 11.3 | 0.05 | 1.12 | 1.12 | 1 | 998.1 |
| 20260507121523 | 61 | 60 | 5.2 | 15.6 | 0.06 | 1.12 | 1.12 | 1 | 996.4 |
| 20260507120019 | 61 | 76 | 4.3 | 10.4 | 0.06 | 1.12 | 1.11 | 1 | 997.0 |